Cloud_Cover
3 2 1 0 2 0 3 5 1 5 5 5 5 5 27 50 44 6 5 40 16 95 28 100 95 38 0 0 4 0 0 0 0 0 0 0 0 0 0 0 0 0 0 0 0 10 32 14 18
5 3 5 5 4 0 3 0 3 5 5 4 2 2 4 24 98 99 73 52 25 100 85 100 88 4 0 5 0 0 0 0 0 0 0 0 0 0 0 0 0 0 0 0 0 0 0 33 1
5 5 4 43 25 7 5 5 0 0 2 2 3 4 4 5 14 5 5 23 30 78 64 100 14 1 0 0 0 0 0 0 0 0 0 0 0 0 0 0 0 0 0 0 0 0 0 0 0
55 4 5 5 14 7 5 5 5 4 0 0 3 5 28 5 25 5 62 53 76 26 30 55 5 28 5 0 0 3 0 0 0 0 0 0 0 0 0 0 0 0 0 0 0 0 0 0 0
13 0 0 0 3 51 5 5 1 3 0 0 3 5 5 5 17 51 49 96 87 32 49 48 28 5 3 0 0 4 1 0 0 0 0 0 0 0 0 0 0 0 0 0 0 0 0 0 0
48 1 0 0 0 1 3 5 0 5 3 2 5 10 17 5 11 74 18 5 61 92 92 22 20 5 0 0 0 0 1 0 0 3 0 0 0 0 0 0 0 0 0 0 0 0 0 0 0
19 5 0 0 0 0 0 1 0 4 0 0 0 0 0 3 0 26 3 5 10 71 12 20 20 4 0 0 0 0 0 0 5 10 0 0 0 1 0 0 0 0 0 0 0 0 0 0 0
18 21 4 5 0 0 0 5 5 0 4 0 0 0 0 0 0 0 0 16 16 4 5 77 5 0 0 0 5 4 1 10 66 6 0 0 0 5 0 5 0 0 0 0 0 0 0 2 0
96 30 5 5 0 4 5 5 4 1 1 0 0 0 0 0 0 0 0 4 0 6 5 5 5 5 5 5 1 8 58 100 100 27 0 0 0 5 5 2 0 0 0 0 0 0 0 0 0
100 6 22 30 7 18 5 5 5 2 2 0 0 1 0 0 0 0 5 5 5 9 10 5 5 3 3 5 5 5 98 100 99 6 5 0 4 5 9 2 2 0 0 0 0 0 0 0 0
96 34 26 7 13 61 9 10 5 5 16 5 5 5 5 5 5 5 5 5 5 5 5 0 5 5 5 5 4 42 100 99 32 6 1 0 4 9 31 5 5 0 0 0 0 3 0 0 0
100 82 76 44 53 88 30 5 5 5 5 5 5 35 45 12 0 5 5 5 5 12 5 5 13 15 29 1 83 100 100 80 5 5 0 0 1 5 5 8 5 0 1 7 5 14 0 0 0
100 76 93 81 100 100 94 42 14 5 5 5 5 6 92 5 4 7 58 72 50 27 30 86 100 88 6 5 86 100 100 55 5 5 1 0 0 4 55 5 4 0 2 12 19 16 8 14 7
100 46 67 86 93 100 100 92 45 61 5 5 5 5 5 5 5 28 64 67 61 33 100 100 47 20 87 5 94 100 100 34 29 5 0 0 0 4 6 5 0 2 14 16 16 34 17 32 40
100 81 100 99 100 96 57 100 31 97 46 7 5 5 68 5 5 5 5 11 36 100 100 80 5 28 3 5 100 100 100 5 7 5 2 1 0 1 19 2 2 12 16 82 100 100 53 87 100
100 100 100 100 100 100 88 85 68 78 66 21 65 74 12 30 10 5 5 5 19 100 74 5 5 5 5 100 100 99 69 7 10 5 5 4 3 5 71 2 6 9 52 98 100 100 94 100 92
100 100 100 100 100 100 100 99 79 62 95 85 100 100 85 84 67 6 46 8 5 31 27 5 2 5 24 100 100 99 78 50 97 6 2 2 4 5 27 5 7 4 16 30 100 100 55 99 100
100 100 100 99 100 100 100 100 100 100 100 100 100 100 99 88 47 5 5 5 5 5 5 13 9 14 74 100 100 100 100 94 55 6 5 4 4 5 5 5 4 7 66 72 99 100 100 100 100
100 100 100 64 50 79 100 100 100 100 100 100 100 100 100 100 99 5 5 5 10 23 16 100 84 20 94 100 100 100 100 100 25 5 5 5 5 5 5 5 5 66 100 86 99 99 100 100 100
100 100 100 100 100 100 100 100 92 100 100 100 100 100 100 100 100 100 84 94 76 18 76 79 45 85 93 100 100 100 100 85 7 18 5 5 5 4 0 5 16 100 100 93 97 82 98 99 100
100 100 100 100 100 91 67 97 100 99 100 100 100 100 100 100 100 100 100 100 100 100 100 100 100 100 100 92 82 73 100 62 6 44 5 5 3 1 0 5 11 99 99 96 100 98 99 100 60
100 100 100 100 100 100 100 97 100 100 100 100 100 100 100 100 100 100 100 100 100 100 100 100 100 100 99 65 68 83 74 87 14 5 5 5 3 2 4 5 5 99 100 100 96 100 60 61 6
100 100 100 100 100 100 100 92 100 100 100 100 100 100 100 100 100 100 100 100 100 100 87 100 100 100 100 93 90 100 33 35 60 5 5 5 5 5 5 5 5 67 93 100 82 79 6 9 5
100 100 100 100 100 100 100 100 100 100 100 100 100 100 100 100 86 100 100 100 100 100 87 77 100 99 99 62 69 100 99 10 37 5 5 5 5 5 5 5 5 96 100 79 100 100 8 5 18
99 100 100 100 100 100 100 100 100 100 100 100 100 100 100 100 100 100 100 100 100 100 100 100 77 98 79 45 93 100 81 57 28 30 5 5 5 5 5 5 8 100 100 37 100 56 6 42 62
100 100 100 100 100 100 100 100 100 100 100 100 100 100 100 100 100 100 100 100 82 100 100 100 57 97 85 67 87 74 78 14 5 6 5 5 5 5 5 5 7 100 100 100 96 100 91 100 14
100 100 100 100 100 52 50 100 100 100 100 100 100 100 100 100 100 100 100 100 100 100 100 100 100 100 100 100 87 90 88 61 5 5 8 5 5 5 6 100 100 100 100 100 100 87 95 48 94
100 100 100 92 19 8 5 9 100 100 100 100 100 100 100 100 100 97 100 100 100 100 100 100 100 100 100 100 100 84 57 40 29 21 6 5 5 49 100 100 100 100 100 100 99 95 100 56 97
100 100 100 100 100 98 81 71 100 100 100 100 100 100 100 100 89 100 100 100 100 100 100 100 100 100 100 100 100 53 54 12 12 5 13 5 43 100 100 99 100 100 99 68 74 92 100 95 54
100 100 100 100 100 100 100 97 100 100 100 100 100 100 100 100 100 71 98 100 100 100 100 100 100 100 100 100 93 92 63 76 41 50 54 77 100 100 100 100 100 100 100 75 97 99 100 99 14